QPF
0.01 0.01 0.02 0.02 0.02 0.03 0.01 0.01 0.01 0.01 0.01 0.01 0.02 0.05 0.06 0.05 0.05 0.03 0.03 0.03 0.02 0.02 0.03 0.03 0.02 0.02 0.02 0.01 0.00 0.00 0.00 0.00 0.00 0.00 0.00 0.00 0.01 0.01 0.01 0.01 0.00 0.00 0.00 0.00
0.01 0.01 0.00 0.01 0.03 0.02 0.01 0.01 0.00 0.01 0.01 0.01 0.02 0.04 0.04 0.03 0.03 0.03 0.02 0.02 0.01 0.02 0.03 0.04 0.04 0.03 0.02 0.01 0.00 0.00 0.00 0.00 0.00 0.00 0.01 0.01 0.00 0.00 0.01 0.02 0.01 0.00 0.00 0.00
0.01 0.01 0.01 0.02 0.02 0.01 0.01 0.01 0.01 0.01 0.01 0.02 0.02 0.03 0.04 0.03 0.02 0.02 0.02 0.02 0.02 0.01 0.03 0.03 0.03 0.02 0.01 0.01 0.00 0.00 0.00 0.00 0.00 0.00 0.01 0.01 0.01 0.00 0.01 0.01 0.02 0.01 0.00 0.00
0.01 0.01 0.02 0.02 0.02 0.01 0.01 0.00 0.01 0.01 0.01 0.02 0.02 0.02 0.03 0.02 0.01 0.01 0.02 0.02 0.03 0.02 0.02 0.03 0.03 0.02 0.01 0.01 0.01 0.00 0.00 0.00 0.00 0.00 0.00 0.00 0.00 0.00 0.00 0.01 0.02 0.02 0.00 0.00
0.01 0.01 0.01 0.01 0.01 0.01 0.01 0.00 0.00 0.01 0.02 0.03 0.03 0.02 0.01 0.01 0.01 0.02 0.03 0.03 0.02 0.02 0.02 0.03 0.04 0.03 0.01 0.01 0.01 0.01 0.00 0.00 0.00 0.00 0.00 0.00 0.00 0.00 0.01 0.01 0.01 0.03 0.02 0.00
0.01 0.01 0.01 0.00 0.00 0.00 0.00 0.01 0.01 0.01 0.02 0.04 0.02 0.01 0.01 0.01 0.01 0.01 0.03 0.03 0.02 0.03 0.02 0.03 0.05 0.04 0.02 0.02 0.01 0.01 0.00 0.00 0.00 0.00 0.00 0.00 0.00 0.00 0.00 0.01 0.01 0.01 0.03 0.02
0.01 0.01 0.00 0.00 0.00 0.00 0.01 0.01 0.02 0.02 0.02 0.02 0.01 0.01 0.01 0.01 0.01 0.01 0.02 0.04 0.03 0.03 0.02 0.03 0.04 0.04 0.02 0.02 0.01 0.02 0.01 0.00 0.00 0.00 0.00 0.00 0.00 0.00 0.00 0.00 0.00 0.01 0.01 0.02
0.01 0.01 0.01 0.01 0.01 0.03 0.03 0.02 0.03 0.04 0.03 0.02 0.01 0.01 0.00 0.00 0.00 0.01 0.02 0.04 0.03 0.04 0.04 0.04 0.03 0.02 0.01 0.02 0.01 0.02 0.02 0.00 0.00 0.00 0.00 0.00 0.00 0.00 0.00 0.00 0.00 0.00 0.01 0.01
0.02 0.02 0.01 0.01 0.01 0.01 0.01 0.01 0.02 0.02 0.01 0.02 0.01 0.01 0.00 0.00 0.01 0.01 0.02 0.04 0.04 0.02 0.04 0.04 0.04 0.03 0.02 0.02 0.02 0.02 0.02 0.01 0.00 0.00 0.00 0.00 0.00 0.00 0.00 0.01 0.00 0.00 0.01 0.01
0.01 0.01 0.01 0.01 0.01 0.01 0.01 0.02 0.02 0.03 0.03 0.03 0.02 0.02 0.01 0.01 0.01 0.01 0.01 0.03 0.03 0.03 0.04 0.05 0.05 0.05 0.04 0.03 0.02 0.02 0.01 0.01 0.01 0.01 0.00 0.00 0.00 0.00 0.00 0.01 0.00 0.00 0.01 0.01
0.01 0.02 0.01 0.01 0.01 0.02 0.01 0.02 0.02 0.02 0.03 0.03 0.03 0.02 0.01 0.01 0.00 0.00 0.00 0.01 0.02 0.03 0.03 0.04 0.04 0.05 0.05 0.04 0.02 0.01 0.02 0.02 0.01 0.01 0.01 0.00 0.00 0.01 0.01 0.01 0.01 0.01 0.01 0.01
0.01 0.01 0.01 0.01 0.01 0.01 0.01 0.02 0.02 0.02 0.03 0.03 0.02 0.02 0.01 0.01 0.01 0.00 0.01 0.01 0.01 0.02 0.03 0.04 0.04 0.05 0.05 0.04 0.03 0.02 0.02 0.01 0.01 0.01 0.01 0.00 0.00 0.00 0.00 0.00 0.01 0.01 0.01 0.01
0.01 0.01 0.01 0.01 0.02 0.01 0.01 0.01 0.02 0.02 0.02 0.03 0.03 0.02 0.01 0.01 0.01 0.01 0.01 0.02 0.03 0.03 0.05 0.05 0.05 0.05 0.05 0.04 0.03 0.03 0.02 0.02 0.01 0.01 0.01 0.00 0.00 0.00 0.00 0.00 0.00 0.01 0.00 0.00
0.01 0.01 0.01 0.01 0.02 0.02 0.01 0.01 0.02 0.02 0.02 0.02 0.03 0.02 0.01 0.01 0.01 0.01 0.01 0.02 0.03 0.03 0.04 0.05 0.05 0.05 0.05 0.04 0.03 0.03 0.02 0.02 0.01 0.01 0.01 0.01 0.00 0.00 0.00 0.00 0.00 0.00 0.01 0.00
0.02 0.01 0.01 0.00 0.01 0.01 0.01 0.01 0.01 0.02 0.02 0.02 0.01 0.01 0.01 0.01 0.01 0.01 0.01 0.01 0.02 0.02 0.03 0.04 0.04 0.05 0.05 0.05 0.04 0.03 0.02 0.02 0.01 0.01 0.01 0.01 0.00 0.00 0.00 0.00 0.00 0.00 0.00 0.00
0.01 0.01 0.01 0.01 0.00 0.01 0.00 0.00 0.00 0.01 0.01 0.01 0.01 0.01 0.01 0.01 0.01 0.01 0.01 0.01 0.01 0.01 0.01 0.02 0.02 0.03 0.04 0.05 0.04 0.03 0.02 0.03 0.01 0.01 0.01 0.01 0.01 0.00 0.00 0.00 0.00 0.01 0.00 0.00
0.00 0.00 0.01 0.01 0.00 0.01 0.00 0.00 0.00 0.01 0.01 0.01 0.01 0.02 0.01 0.01 0.01 0.01 0.00 0.01 0.01 0.02 0.01 0.01 0.01 0.01 0.02 0.03 0.03 0.03 0.04 0.04 0.02 0.02 0.01 0.01 0.01 0.01 0.01 0.00 0.01 0.01 0.01 0.01
0.00 0.00 0.01 0.01 0.00 0.00 0.00 0.00 0.00 0.01 0.02 0.01 0.01 0.02 0.02 0.02 0.01 0.01 0.01 0.01 0.01 0.02 0.02 0.02 0.01 0.01 0.01 0.01 0.02 0.03 0.03 0.04 0.03 0.02 0.01 0.01 0.01 0.01 0.01 0.01 0.01 0.01 0.01 0.02
0.00 0.01 0.02 0.02 0.01 0.00 0.00 0.00 0.00 0.01 0.01 0.01 0.02 0.02 0.02 0.03 0.02 0.01 0.01 0.01 0.01 0.01 0.01 0.01 0.01 0.01 0.01 0.01 0.01 0.02 0.03 0.03 0.03 0.02 0.02 0.01 0.01 0.01 0.01 0.00 0.00 0.00 0.01 0.01
0.01 0.01 0.02 0.01 0.01 0.01 0.00 0.00 0.00 0.00 0.00 0.01 0.02 0.02 0.02 0.02 0.02 0.01 0.01 0.01 0.01 0.01 0.01 0.01 0.01 0.01 0.01 0.01 0.01 0.00 0.01 0.01 0.02 0.02 0.02 0.02 0.01 0.01 0.01 0.01 0.00 0.00 0.00 0.00
0.01 0.01 0.01 0.01 0.01 0.01 0.00 0.00 0.00 0.00 0.00 0.01 0.01 0.02 0.02 0.01 0.01 0.01 0.01 0.01 0.01 0.01 0.01 0.01 0.01 0.00 0.00 0.01 0.00 0.00 0.00 0.00 0.00 0.01 0.02 0.01 0.01 0.01 0.01 0.01 0.01 0.00 0.00 0.00
0.01 0.01 0.01 0.01 0.01 0.01 0.00 0.00 0.00 0.00 0.01 0.01 0.01 0.01 0.01 0.01 0.01 0.01 0.01 0.01 0.01 0.01 0.01 0.00 0.00 0.00 0.00 0.00 0.00 0.01 0.01 0.01 0.00 0.00 0.02 0.02 0.02 0.02 0.02 0.02 0.01 0.00 0.00 0.00
0.01 0.01 0.01 0.01 0.01 0.01 0.01 0.01 0.01 0.00 0.01 0.01 0.01 0.01 0.00 0.01 0.00 0.01 0.01 0.02 0.01 0.01 0.01 0.00 0.00 0.00 0.00 0.00 0.01 0.01 0.01 0.01 0.01 0.01 0.01 0.01 0.01 0.02 0.02 0.03 0.02 0.01 0.00 0.00
0.01 0.01 0.01 0.00 0.00 0.01 0.01 0.01 0.01 0.00 0.00 0.00 0.00 0.00 0.00 0.00 0.00 0.02 0.02 0.02 0.02 0.02 0.01 0.01 0.00 0.00 0.00 0.01 0.01 0.01 0.01 0.00 0.01 0.01 0.01 0.01 0.01 0.01 0.02 0.02 0.02 0.02 0.02 0.01
0.01 0.01 0.00 0.00 0.00 0.00 0.00 0.00 0.00 0.00 0.00 0.00 0.00 0.00 0.00 0.00 0.00 0.01 0.04 0.03 0.02 0.02 0.02 0.01 0.01 0.01 0.01 0.01 0.01 0.01 0.01 0.00 0.00 0.00 0.01 0.01 0.02 0.03 0.03 0.02 0.03 0.03 0.02 0.02
0.01 0.01 0.00 0.00 0.00 0.00 0.00 0.00 0.00 0.00 0.00 0.00 0.00 0.00 0.00 0.00 0.00 0.00 0.01 0.03 0.03 0.02 0.02 0.02 0.02 0.02 0.01 0.01 0.01 0.01 0.01 0.01 0.01 0.00 0.01 0.01 0.01 0.02 0.03 0.02 0.02 0.01 0.01 0.01
MSLP
1016.64 1017.54 1018.26 1018.80 1019.21 1019.54 1019.84 1020.16 1020.52 1020.90 1021.25 1021.54 1021.71 1021.74 1021.64 1021.41 1021.13 1020.84 1020.59 1020.41 1020.33 1020.32 1020.35 1020.41 1020.46 1020.47 1020.46 1020.44 1020.43 1020.47 1020.57 1020.73 1020.94 1021.16 1021.37 1021.51 1021.57 1021.53 1021.40 1021.20 1020.96 1020.71 1020.48 1020.28
1017.37 1018.10 1018.64 1019.04 1019.34 1019.63 1019.97 1020.38 1020.86 1021.36 1021.82 1022.17 1022.35 1022.33 1022.13 1021.79 1021.39 1020.99 1020.68 1020.49 1020.42 1020.47 1020.57 1020.69 1020.77 1020.80 1020.77 1020.71 1020.65 1020.65 1020.72 1020.89 1021.14 1021.42 1021.70 1021.91 1022.03 1022.03 1021.90 1021.69 1021.42 1021.15 1020.89 1020.67
1017.91 1018.46 1018.84 1019.10 1019.33 1019.61 1020.00 1020.52 1021.14 1021.77 1022.33 1022.73 1022.91 1022.84 1022.54 1022.08 1021.55 1021.07 1020.70 1020.49 1020.46 1020.56 1020.74 1020.93 1021.07 1021.12 1021.08 1020.99 1020.89 1020.84 1020.89 1021.05 1021.32 1021.64 1021.98 1022.26 1022.43 1022.47 1022.37 1022.16 1021.89 1021.60 1021.33 1021.11
1018.29 1018.67 1018.90 1019.05 1019.23 1019.54 1020.01 1020.64 1021.39 1022.14 1022.79 1023.22 1023.38 1023.24 1022.83 1022.24 1021.60 1021.02 1020.60 1020.39 1020.40 1020.57 1020.84 1021.11 1021.31 1021.41 1021.38 1021.27 1021.14 1021.05 1021.07 1021.21 1021.47 1021.82 1022.20 1022.53 1022.77 1022.86 1022.80 1022.62 1022.37 1022.09 1021.82 1021.61
1018.54 1018.77 1018.88 1018.96 1019.13 1019.47 1020.03 1020.78 1021.64 1022.48 1023.18 1023.62 1023.73 1023.49 1022.97 1022.25 1021.49 1020.83 1020.37 1020.16 1020.21 1020.47 1020.83 1021.20 1021.49 1021.64 1021.64 1021.54 1021.38 1021.26 1021.24 1021.35 1021.60 1021.97 1022.37 1022.75 1023.04 1023.19 1023.20 1023.07 1022.85 1022.61 1022.37 1022.18
1018.72 1018.82 1018.84 1018.90 1019.08 1019.48 1020.11 1020.96 1021.90 1022.79 1023.51 1023.91 1023.95 1023.60 1022.94 1022.10 1021.24 1020.50 1020.01 1019.82 1019.92 1020.26 1020.72 1021.20 1021.58 1021.80 1021.86 1021.77 1021.61 1021.46 1021.40 1021.49 1021.72 1022.08 1022.50 1022.92 1023.26 1023.48 1023.56 1023.50 1023.35 1023.16 1022.97 1022.82
1018.85 1018.88 1018.85 1018.89 1019.11 1019.57 1020.28 1021.18 1022.16 1023.07 1023.75 1024.08 1024.01 1023.54 1022.77 1021.81 1020.86 1020.07 1019.56 1019.40 1019.56 1019.98 1020.55 1021.13 1021.61 1021.91 1022.02 1021.97 1021.82 1021.66 1021.57 1021.63 1021.84 1022.18 1022.61 1023.06 1023.45 1023.74 1023.90 1023.92 1023.85 1023.73 1023.60 1023.49
1018.96 1018.93 1018.90 1018.96 1019.23 1019.74 1020.50 1021.43 1022.41 1023.28 1023.89 1024.12 1023.93 1023.35 1022.47 1021.43 1020.42 1019.60 1019.10 1018.97 1019.20 1019.70 1020.35 1021.03 1021.59 1021.98 1022.15 1022.14 1022.01 1021.85 1021.75 1021.78 1021.97 1022.30 1022.73 1023.20 1023.63 1023.98 1024.21 1024.32 1024.33 1024.28 1024.21 1024.16
1019.02 1018.98 1018.97 1019.08 1019.40 1019.96 1020.74 1021.66 1022.59 1023.38 1023.89 1024.02 1023.72 1023.04 1022.08 1021.00 1019.98 1019.18 1018.71 1018.62 1018.90 1019.47 1020.20 1020.94 1021.58 1022.03 1022.26 1022.29 1022.19 1022.05 1021.95 1021.97 1022.14 1022.45 1022.87 1023.34 1023.80 1024.20 1024.49 1024.68 1024.77 1024.79 1024.79 1024.78
1018.98 1018.98 1019.02 1019.19 1019.57 1020.15 1020.93 1021.81 1022.66 1023.35 1023.74 1023.75 1023.37 1022.64 1021.65 1020.58 1019.59 1018.84 1018.43 1018.41 1018.74 1019.35 1020.11 1020.90 1021.58 1022.07 1022.34 1022.42 1022.36 1022.25 1022.17 1022.18 1022.34 1022.64 1023.04 1023.51 1023.98 1024.40 1024.74 1024.98 1025.13 1025.22 1025.27 1025.31
1018.83 1018.89 1019.01 1019.25 1019.67 1020.27 1021.01 1021.81 1022.56 1023.12 1023.40 1023.32 1022.88 1022.13 1021.18 1020.18 1019.29 1018.63 1018.30 1018.34 1018.71 1019.34 1020.11 1020.90 1021.58 1022.09 1022.40 1022.52 1022.50 1022.43 1022.38 1022.42 1022.58 1022.86 1023.25 1023.70 1024.16 1024.58 1024.94 1025.21 1025.41 1025.55 1025.64 1025.73
1018.57 1018.72 1018.91 1019.22 1019.67 1020.26 1020.94 1021.64 1022.26 1022.69 1022.85 1022.70 1022.24 1021.53 1020.67 1019.79 1019.03 1018.50 1018.28 1018.38 1018.78 1019.41 1020.16 1020.91 1021.56 1022.06 1022.39 1022.54 1022.58 1022.57 1022.57 1022.64 1022.82 1023.10 1023.47 1023.90 1024.34 1024.74 1025.10 1025.39 1025.60 1025.78 1025.91 1026.03
1018.26 1018.49 1018.77 1019.13 1019.59 1020.13 1020.72 1021.29 1021.76 1022.05 1022.11 1021.91 1021.47 1020.84 1020.10 1019.38 1018.78 1018.40 1018.29 1018.46 1018.87 1019.47 1020.16 1020.84 1021.45 1021.93 1022.26 1022.45 1022.55 1022.61 1022.69 1022.82 1023.03 1023.33 1023.69 1024.09 1024.50 1024.88 1025.22 1025.50 1025.73 1025.93 1026.09 1026.25
1017.99 1018.30 1018.64 1019.03 1019.46 1019.92 1020.39 1020.81 1021.11 1021.26 1021.22 1020.98 1020.57 1020.03 1019.44 1018.90 1018.48 1018.25 1018.25 1018.47 1018.88 1019.43 1020.04 1020.65 1021.20 1021.64 1021.97 1022.21 1022.39 1022.54 1022.71 1022.92 1023.19 1023.52 1023.88 1024.26 1024.64 1024.99 1025.30 1025.57 1025.81 1026.02 1026.21 1026.40
1017.86 1018.24 1018.61 1018.98 1019.35 1019.71 1020.02 1020.26 1020.39 1020.39 1020.24 1019.97 1019.58 1019.14 1018.70 1018.33 1018.08 1017.99 1018.08 1018.33 1018.72 1019.22 1019.74 1020.26 1020.74 1021.15 1021.50 1021.79 1022.06 1022.32 1022.60 1022.91 1023.26 1023.63 1024.01 1024.38 1024.74 1025.06 1025.35 1025.61 1025.85 1026.07 1026.29 1026.51
1017.98 1018.38 1018.74 1019.07 1019.34 1019.55 1019.69 1019.73 1019.67 1019.52 1019.26 1018.94 1018.58 1018.22 1017.91 1017.68 1017.57 1017.59 1017.74 1018.01 1018.37 1018.79 1019.23 1019.67 1020.08 1020.47 1020.84 1021.21 1021.57 1021.96 1022.36 1022.78 1023.22 1023.65 1024.06 1024.43 1024.78 1025.08 1025.35 1025.61 1025.85 1026.10 1026.35 1026.60
1018.37 1018.76 1019.08 1019.31 1019.46 1019.51 1019.45 1019.30 1019.05 1018.73 1018.37 1018.00 1017.64 1017.34 1017.11 1016.99 1016.97 1017.07 1017.26 1017.52 1017.83 1018.18 1018.53 1018.90 1019.27 1019.65 1020.05 1020.48 1020.95 1021.46 1021.99 1022.53 1023.05 1023.54 1023.99 1024.39 1024.73 1025.03 1025.30 1025.56 1025.82 1026.09 1026.38 1026.66
1019.01 1019.34 1019.58 1019.71 1019.71 1019.58 1019.34 1019.00 1018.58 1018.11 1017.65 1017.21 1016.84 1016.56 1016.39 1016.33 1016.36 1016.49 1016.68 1016.91 1017.17 1017.44 1017.72 1018.03 1018.36 1018.74 1019.18 1019.68 1020.25 1020.86 1021.51 1022.15 1022.75 1023.31 1023.80 1024.21 1024.56 1024.87 1025.15 1025.43 1025.72 1026.03 1026.34 1026.67
1019.77 1020.03 1020.16 1020.16 1020.01 1019.73 1019.32 1018.82 1018.25 1017.67 1017.11 1016.62 1016.23 1015.96 1015.80 1015.76 1015.81 1015.93 1016.09 1016.28 1016.48 1016.68 1016.90 1017.15 1017.46 1017.84 1018.32 1018.88 1019.52 1020.22 1020.94 1021.66 1022.33 1022.93 1023.45 1023.89 1024.26 1024.58 1024.89 1025.19 1025.51 1025.85 1026.21 1026.57
1020.48 1020.64 1020.66 1020.53 1020.26 1019.84 1019.30 1018.68 1018.02 1017.36 1016.75 1016.22 1015.81 1015.53 1015.36 1015.32 1015.35 1015.45 1015.57 1015.71 1015.84 1015.99 1016.16 1016.37 1016.66 1017.04 1017.53 1018.12 1018.80 1019.55 1020.32 1021.08 1021.78 1022.41 1022.96 1023.41 1023.80 1024.15 1024.47 1024.81 1025.17 1025.55 1025.95 1026.35
1020.98 1021.03 1020.93 1020.70 1020.31 1019.80 1019.19 1018.51 1017.80 1017.12 1016.49 1015.96 1015.54 1015.25 1015.08 1015.01 1015.02 1015.08 1015.16 1015.24 1015.33 1015.42 1015.55 1015.73 1015.99 1016.36 1016.85 1017.45 1018.13 1018.89 1019.66 1020.42 1021.13 1021.76 1022.31 1022.78 1023.18 1023.55 1023.91 1024.28 1024.68 1025.10 1025.54 1025.97
1021.12 1021.06 1020.86 1020.53 1020.08 1019.53 1018.89 1018.21 1017.52 1016.85 1016.26 1015.75 1015.35 1015.07 1014.89 1014.81 1014.79 1014.81 1014.84 1014.89 1014.94 1015.00 1015.09 1015.25 1015.49 1015.84 1016.29 1016.86 1017.51 1018.23 1018.97 1019.69 1020.37 1020.98 1021.52 1021.99 1022.42 1022.81 1023.21 1023.61 1024.05 1024.50 1024.97 1025.43
1020.84 1020.68 1020.39 1020.00 1019.52 1018.96 1018.36 1017.72 1017.10 1016.51 1015.97 1015.53 1015.17 1014.91 1014.74 1014.65 1014.61 1014.60 1014.61 1014.64 1014.66 1014.70 1014.78 1014.91 1015.12 1015.43 1015.84 1016.35 1016.93 1017.58 1018.24 1018.90 1019.53 1020.11 1020.64 1021.11 1021.55 1021.97 1022.40 1022.85 1023.31 1023.80 1024.29 1024.77
1020.17 1019.91 1019.56 1019.14 1018.66 1018.14 1017.60 1017.06 1016.54 1016.05 1015.61 1015.24 1014.95 1014.72 1014.58 1014.49 1014.44 1014.43 1014.43 1014.44 1014.46 1014.49 1014.56 1014.68 1014.86 1015.12 1015.46 1015.89 1016.38 1016.93 1017.50 1018.08 1018.65 1019.18 1019.69 1020.17 1020.64 1021.09 1021.55 1022.03 1022.53 1023.04 1023.55 1024.04
1019.20 1018.86 1018.47 1018.05 1017.60 1017.15 1016.71 1016.28 1015.88 1015.51 1015.18 1014.90 1014.67 1014.50 1014.38 1014.30 1014.26 1014.25 1014.25 1014.27 1014.29 1014.34 1014.40 1014.50 1014.65 1014.86 1015.13 1015.46 1015.85 1016.29 1016.76 1017.26 1017.76 1018.26 1018.75 1019.24 1019.73 1020.22 1020.73 1021.24 1021.76 1022.28 1022.80 1023.29
1018.09 1017.70 1017.30 1016.89 1016.51 1016.15 1015.81 1015.51 1015.23 1014.98 1014.76 1014.56 1014.40 1014.26 1014.16 1014.10 1014.07 1014.07 1014.08 1014.11 1014.16 1014.21 1014.28 1014.37 1014.49 1014.64 1014.83 1015.07 1015.36 1015.69 1016.06 1016.47 1016.91 1017.38 1017.87 1018.38 1018.90 1019.43 1019.97 1020.52 1021.06 1021.59 1022.10 1022.59
Thickness
5729 5714 5703 5709 5714 5714 5711 5704 5700 5706 5719 5713 5705 5704 5709 5715 5715 5712 5712 5714 5717 5720 5725 5728 5729 5730 5729 5728 5728 5728 5727 5726 5726 5724 5723 5721 5720 5721 5722 5723 5723 5724 5724 5724
5710 5705 5719 5724 5722 5718 5711 5701 5699 5707 5717 5712 5702 5703 5711 5715 5715 5717 5716 5716 5717 5719 5721 5723 5726 5727 5726 5725 5725 5725 5725 5724 5724 5723 5722 5720 5719 5718 5719 5719 5720 5721 5721 5721
5704 5715 5727 5722 5716 5711 5708 5702 5701 5702 5708 5709 5700 5694 5702 5712 5718 5720 5720 5721 5721 5721 5720 5721 5722 5723 5723 5723 5724 5725 5723 5723 5723 5722 5720 5718 5716 5715 5714 5715 5716 5717 5718 5718
5711 5723 5723 5716 5713 5712 5701 5714 5712 5707 5694 5685 5693 5673 5694 5704 5709 5715 5717 5718 5720 5722 5722 5722 5721 5721 5722 5723 5724 5723 5722 5721 5721 5720 5718 5715 5711 5708 5709 5711 5712 5713 5714 5714
5709 5719 5716 5712 5717 5718 5710 5720 5714 5706 5694 5685 5688 5678 5686 5701 5702 5710 5716 5719 5721 5723 5723 5722 5722 5722 5723 5723 5722 5722 5721 5719 5719 5718 5716 5713 5710 5709 5708 5709 5709 5709 5710 5710
5716 5726 5724 5721 5726 5726 5721 5712 5705 5695 5684 5671 5684 5678 5681 5695 5707 5714 5719 5721 5722 5723 5723 5723 5723 5722 5721 5721 5720 5719 5718 5716 5716 5715 5714 5712 5709 5707 5705 5705 5704 5704 5705 5706
5705 5715 5725 5729 5717 5717 5711 5687 5669 5666 5660 5666 5688 5684 5690 5713 5722 5724 5723 5723 5724 5724 5722 5720 5718 5718 5717 5717 5717 5717 5715 5714 5714 5713 5712 5710 5709 5707 5705 5703 5702 5701 5701 5701
5688 5689 5714 5722 5714 5704 5702 5690 5667 5658 5658 5668 5685 5683 5702 5727 5731 5732 5730 5727 5726 5723 5722 5720 5719 5718 5717 5716 5716 5715 5713 5712 5712 5711 5710 5709 5708 5706 5704 5703 5702 5700 5699 5699
5689 5691 5718 5726 5725 5715 5698 5690 5692 5675 5673 5667 5676 5692 5710 5725 5725 5725 5725 5724 5723 5723 5722 5721 5719 5718 5717 5716 5715 5714 5712 5710 5710 5710 5708 5707 5705 5704 5703 5701 5701 5699 5698 5698
5704 5693 5710 5721 5721 5718 5711 5700 5682 5673 5662 5658 5672 5682 5690 5707 5714 5719 5720 5721 5722 5722 5721 5720 5718 5717 5717 5716 5714 5713 5712 5710 5708 5708 5707 5705 5704 5703 5701 5700 5698 5697 5696 5695
5710 5693 5697 5706 5703 5700 5702 5697 5688 5675 5671 5659 5658 5676 5712 5714 5718 5718 5720 5722 5722 5721 5720 5718 5717 5717 5716 5714 5712 5711 5709 5708 5706 5705 5704 5703 5701 5700 5699 5697 5696 5695 5693 5692
5709 5692 5683 5696 5713 5719 5709 5701 5688 5672 5669 5668 5662 5678 5724 5723 5723 5723 5722 5722 5724 5723 5721 5719 5717 5714 5712 5711 5709 5709 5707 5706 5705 5704 5702 5700 5698 5697 5695 5694 5693 5693 5691 5689
5708 5689 5673 5678 5690 5705 5704 5705 5698 5687 5675 5667 5662 5681 5720 5721 5721 5723 5722 5721 5722 5721 5719 5717 5714 5712 5710 5709 5708 5707 5706 5704 5703 5701 5699 5697 5695 5693 5692 5691 5690 5689 5687 5685
5713 5689 5679 5674 5683 5695 5698 5703 5703 5689 5672 5670 5677 5689 5706 5713 5716 5719 5721 5721 5721 5719 5717 5715 5711 5710 5709 5707 5706 5705 5703 5702 5701 5698 5696 5693 5692 5691 5689 5688 5686 5685 5683 5681
5706 5687 5689 5693 5701 5702 5702 5704 5704 5696 5689 5682 5690 5696 5706 5714 5718 5720 5722 5720 5719 5716 5715 5713 5711 5709 5707 5705 5704 5703 5701 5700 5699 5695 5693 5691 5690 5688 5686 5684 5682 5681 5679 5677
5696 5687 5687 5688 5699 5699 5698 5703 5704 5703 5702 5698 5698 5701 5718 5722 5721 5719 5719 5719 5716 5716 5715 5714 5711 5709 5706 5705 5703 5701 5699 5698 5696 5693 5690 5688 5686 5684 5682 5680 5678 5675 5673 5671
5683 5681 5674 5671 5686 5689 5682 5700 5702 5703 5708 5705 5696 5707 5718 5716 5718 5719 5720 5720 5719 5717 5716 5713 5712 5710 5708 5706 5704 5700 5698 5696 5693 5691 5688 5686 5683 5680 5678 5676 5673 5671 5668 5666
5680 5674 5665 5663 5671 5661 5689 5714 5713 5707 5709 5713 5714 5717 5719 5721 5723 5724 5724 5722 5720 5719 5716 5715 5713 5710 5709 5706 5703 5701 5697 5693 5690 5688 5685 5683 5680 5677 5674 5672 5669 5666 5664 5661
5686 5674 5660 5654 5656 5667 5693 5708 5710 5702 5701 5714 5713 5717 5720 5722 5718 5716 5723 5725 5723 5722 5719 5717 5715 5712 5708 5705 5702 5698 5693 5690 5687 5685 5683 5680 5678 5674 5670 5667 5665 5662 5659 5657
5682 5676 5661 5652 5652 5654 5684 5709 5717 5706 5691 5712 5714 5714 5716 5713 5697 5704 5719 5722 5722 5721 5719 5716 5713 5710 5705 5703 5700 5695 5690 5687 5685 5683 5681 5678 5675 5672 5668 5665 5661 5658 5656 5652
5665 5661 5655 5650 5651 5664 5693 5707 5708 5680 5686 5710 5713 5714 5713 5708 5709 5716 5720 5720 5720 5719 5717 5714 5710 5707 5704 5702 5697 5692 5688 5686 5685 5682 5679 5675 5672 5669 5665 5661 5658 5655 5651 5648
5657 5652 5650 5647 5646 5660 5698 5698 5690 5692 5706 5710 5711 5713 5712 5711 5714 5715 5716 5715 5714 5712 5711 5709 5705 5702 5701 5699 5695 5690 5687 5686 5683 5679 5674 5671 5668 5665 5662 5657 5653 5650 5647 5642
5656 5660 5658 5659 5664 5684 5695 5697 5702 5704 5704 5706 5707 5709 5709 5708 5707 5709 5709 5709 5708 5707 5705 5704 5701 5698 5696 5695 5693 5688 5686 5683 5679 5674 5670 5666 5663 5660 5657 5653 5649 5645 5641 5638
5656 5664 5660 5660 5671 5683 5691 5696 5700 5703 5704 5706 5707 5707 5706 5703 5702 5702 5702 5701 5701 5700 5699 5697 5695 5693 5690 5690 5689 5688 5684 5680 5675 5669 5665 5662 5658 5654 5651 5649 5646 5642 5637 5634
5649 5655 5653 5655 5668 5677 5684 5689 5694 5697 5700 5701 5702 5702 5701 5699 5697 5697 5696 5695 5695 5693 5692 5691 5690 5688 5686 5685 5684 5682 5680 5676 5670 5665 5661 5657 5653 5650 5645 5643 5641 5639 5637 5635
5645 5646 5645 5649 5664 5666 5672 5684 5689 5690 5691 5693 5693 5693 5695 5695 5693 5692 5690 5690 5689 5687 5686 5684 5684 5682 5681 5680 5678 5676 5675 5672 5666 5660 5656 5652 5648 5645 5641 5637 5633 5632 5631 5630